Year,Month,Day,Hour,Minute,Value (Times are PST for temperature in C)
2013,08,29,00,00,16.50
2013,08,29,00,01,16.50
2013,08,29,00,02,16.50
2013,08,29,00,03,16.50
2013,08,29,00,04,16.50
2013,08,29,00,05,16.50
2013,08,29,00,06,16.60
2013,08,29,00,07,16.60
2013,08,29,00,08,16.60
2013,08,29,00,09,16.60
2013,08,29,00,10,16.60
2013,08,29,00,11,16.60
2013,08,29,00,12,16.60
2013,08,29,00,13,16.60
2013,08,29,00,14,16.60
2013,08,29,00,15,16.60
2013,08,29,00,16,16.60
2013,08,29,00,17,16.60
2013,08,29,00,18,16.60
2013,08,29,00,19,16.60
2013,08,29,00,20,16.50
2013,08,29,00,21,16.50
2013,08,29,00,22,16.50
2013,08,29,00,23,16.50
2013,08,29,00,24,16.50
2013,08,29,00,25,16.60
2013,08,29,00,26,16.50
2013,08,29,00,27,16.50
2013,08,29,00,28,16.50
2013,08,29,00,29,16.50
2013,08,29,00,30,16.50
2013,08,29,00,31,16.50
2013,08,29,00,32,16.50
2013,08,29,00,33,16.50
2013,08,29,00,34,16.60
2013,08,29,00,35,16.60
2013,08,29,00,36,16.60
2013,08,29,00,37,16.60
2013,08,29,00,38,16.60
2013,08,29,00,39,16.60
2013,08,29,00,40,16.60
2013,08,29,00,41,16.60
2013,08,29,00,42,16.60
2013,08,29,00,43,16.60
2013,08,29,00,44,16.60
2013,08,29,00,45,16.60
2013,08,29,00,46,16.50
2013,08,29,00,47,16.50
2013,08,29,00,48,16.50
2013,08,29,00,49,16.50
2013,08,29,00,50,16.40
2013,08,29,00,51,16.40
2013,08,29,00,52,16.30
2013,08,29,00,53,16.30
2013,08,29,00,54,16.20
2013,08,29,00,55,16.10
2013,08,29,00,56,16.00
2013,08,29,00,57,15.90
2013,08,29,00,58,15.90
2013,08,29,00,59,15.90
2013,08,29,01,00,15.90
2013,08,29,01,01,15.90
2013,08,29,01,02,15.90
2013,08,29,01,03,15.90
2013,08,29,01,04,15.90
2013,08,29,01,05,15.90
2013,08,29,01,06,15.90
2013,08,29,01,07,15.90
2013,08,29,01,08,15.90
2013,08,29,01,09,15.90
2013,08,29,01,10,15.90
2013,08,29,01,11,15.90
2013,08,29,01,12,15.90
2013,08,29,01,13,15.90
2013,08,29,01,14,16.00
2013,08,29,01,15,16.00
2013,08,29,01,16,16.00
2013,08,29,01,17,16.00
2013,08,29,01,18,16.10
2013,08,29,01,19,16.10
2013,08,29,01,20,16.10
2013,08,29,01,21,16.10
2013,08,29,01,22,16.20
2013,08,29,01,23,16.20
2013,08,29,01,24,16.20
2013,08,29,01,25,16.30
2013,08,29,01,26,16.30
2013,08,29,01,27,16.30
2013,08,29,01,28,16.30
2013,08,29,01,29,16.30
2013,08,29,01,30,16.30
2013,08,29,01,31,16.30
2013,08,29,01,32,16.30
2013,08,29,01,33,16.40
2013,08,29,01,34,16.40
2013,08,29,01,35,16.40
2013,08,29,01,36,16.40
2013,08,29,01,37,16.40
2013,08,29,01,38,16.40
2013,08,29,01,39,16.40
2013,08,29,01,40,16.40
2013,08,29,01,41,16.40
2013,08,29,01,42,16.40
2013,08,29,01,43,16.40
2013,08,29,01,44,16.40
2013,08,29,01,45,16.30
2013,08,29,01,46,16.30
2013,08,29,01,47,16.30
2013,08,29,01,48,16.30
2013,08,29,01,49,16.30
2013,08,29,01,50,16.30
2013,08,29,01,51,16.30
2013,08,29,01,52,16.30
2013,08,29,01,53,16.30
2013,08,29,01,54,16.30
2013,08,29,01,55,16.30
2013,08,29,01,56,16.30
2013,08,29,01,57,16.30
2013,08,29,01,58,16.30
2013,08,29,01,59,16.30
2013,08,29,02,00,16.30
2013,08,29,02,01,16.30
2013,08,29,02,02,16.20
2013,08,29,02,03,16.20
2013,08,29,02,04,16.20
2013,08,29,02,05,16.20
2013,08,29,02,06,16.20
2013,08,29,02,07,16.20
2013,08,29,02,08,16.30
2013,08,29,02,09,16.30
2013,08,29,02,10,16.30
2013,08,29,02,11,16.30
2013,08,29,02,12,16.30
2013,08,29,02,13,16.30
2013,08,29,02,14,16.30
2013,08,29,02,15,16.30
2013,08,29,02,16,16.30
2013,08,29,02,17,16.30
2013,08,29,02,18,16.40
2013,08,29,02,19,16.40
2013,08,29,02,20,16.40
2013,08,29,02,21,16.40
2013,08,29,02,22,16.40
2013,08,29,02,23,16.40
2013,08,29,02,24,16.50
2013,08,29,02,25,16.50
2013,08,29,02,26,16.50
2013,08,29,02,27,16.50
2013,08,29,02,28,16.50
2013,08,29,02,29,16.50
2013,08,29,02,30,16.50
2013,08,29,02,31,16.50
2013,08,29,02,32,16.50
2013,08,29,02,33,16.50
2013,08,29,02,34,16.50
2013,08,29,02,35,16.50
2013,08,29,02,36,16.50
2013,08,29,02,37,16.50
2013,08,29,02,38,16.40
2013,08,29,02,39,16.40
2013,08,29,02,40,16.30
2013,08,29,02,41,16.30
2013,08,29,02,42,16.20
2013,08,29,02,43,16.20
2013,08,29,02,44,16.10
2013,08,29,02,45,16.10
2013,08,29,02,46,16.10
2013,08,29,02,47,16.10
2013,08,29,02,48,16.10
2013,08,29,02,49,16.10
2013,08,29,02,50,16.10
2013,08,29,02,51,16.10
2013,08,29,02,52,16.20
2013,08,29,02,53,16.20
2013,08,29,02,54,16.20
2013,08,29,02,55,16.20
2013,08,29,02,56,16.20
2013,08,29,02,57,16.20
2013,08,29,02,58,16.20
2013,08,29,02,59,16.20
2013,08,29,03,00,16.20
2013,08,29,03,01,16.20
2013,08,29,03,02,16.20
2013,08,29,03,03,16.20
2013,08,29,03,04,16.30
2013,08,29,03,05,16.30
2013,08,29,03,06,16.30
2013,08,29,03,07,16.30
2013,08,29,03,08,16.30
2013,08,29,03,09,16.30
2013,08,29,03,10,16.30
2013,08,29,03,11,16.30
2013,08,29,03,12,16.30
2013,08,29,03,13,16.30
2013,08,29,03,14,16.20
2013,08,29,03,15,16.20
2013,08,29,03,16,16.20
2013,08,29,03,17,16.20
2013,08,29,03,18,16.20
2013,08,29,03,19,16.10
2013,08,29,03,20,16.10
2013,08,29,03,21,16.10
2013,08,29,03,22,16.10
2013,08,29,03,23,16.10
2013,08,29,03,24,16.20
2013,08,29,03,25,16.20
2013,08,29,03,26,16.20
2013,08,29,03,27,16.20
2013,08,29,03,28,16.20
2013,08,29,03,29,16.20
2013,08,29,03,30,16.20
2013,08,29,03,31,16.20
2013,08,29,03,32,16.20
2013,08,29,03,33,16.20
2013,08,29,03,34,16.20
2013,08,29,03,35,16.20
2013,08,29,03,36,16.20
2013,08,29,03,37,16.20
2013,08,29,03,38,16.20
2013,08,29,03,39,16.20
2013,08,29,03,40,16.10
2013,08,29,03,41,16.10
2013,08,29,03,42,16.10
2013,08,29,03,43,16.10
2013,08,29,03,44,16.10
2013,08,29,03,45,16.10
2013,08,29,03,46,16.10
2013,08,29,03,47,16.10
2013,08,29,03,48,16.10
2013,08,29,03,49,16.10
2013,08,29,03,50,16.20
2013,08,29,03,51,16.20
2013,08,29,03,52,16.20
2013,08,29,03,53,16.20
2013,08,29,03,54,16.20
2013,08,29,03,55,16.20
2013,08,29,03,56,16.20
2013,08,29,03,57,16.20
2013,08,29,03,58,16.20
2013,08,29,03,59,16.20
2013,08,29,04,00,16.20
2013,08,29,04,01,16.20
2013,08,29,04,02,16.20
2013,08,29,04,03,16.20
2013,08,29,04,04,16.20
2013,08,29,04,05,16.20
2013,08,29,04,06,16.20
2013,08,29,04,07,16.20
2013,08,29,04,08,16.20
2013,08,29,04,09,16.20
2013,08,29,04,10,16.20
2013,08,29,04,11,16.20
2013,08,29,04,12,16.20
2013,08,29,04,13,16.20
2013,08,29,04,14,16.20
2013,08,29,04,15,16.20
2013,08,29,04,16,16.20
2013,08,29,04,17,16.20
2013,08,29,04,18,16.20
2013,08,29,04,19,16.20
2013,08,29,04,20,16.10
2013,08,29,04,21,16.10
2013,08,29,04,22,16.10
2013,08,29,04,23,16.10
2013,08,29,04,24,16.10
2013,08,29,04,25,16.10
2013,08,29,04,26,16.10
2013,08,29,04,27,16.00
2013,08,29,04,28,16.00
2013,08,29,04,29,16.00
2013,08,29,04,30,16.00
2013,08,29,04,31,16.10
2013,08,29,04,32,16.10
2013,08,29,04,33,16.10
2013,08,29,04,34,16.10
2013,08,29,04,35,16.10
2013,08,29,04,36,16.10
2013,08,29,04,37,16.10
2013,08,29,04,38,16.10
2013,08,29,04,39,16.10
2013,08,29,04,40,16.10
2013,08,29,04,41,16.10
2013,08,29,04,42,16.10
2013,08,29,04,43,16.10
2013,08,29,04,44,16.10
2013,08,29,04,45,16.10
2013,08,29,04,46,16.10
2013,08,29,04,47,16.10
2013,08,29,04,48,16.10
2013,08,29,04,49,16.00
2013,08,29,04,50,16.00
2013,08,29,04,51,15.90
2013,08,29,04,52,15.90
2013,08,29,04,53,15.90
2013,08,29,04,54,15.90
2013,08,29,04,55,15.90
2013,08,29,04,56,15.90
2013,08,29,04,57,15.80
2013,08,29,04,58,15.80
2013,08,29,04,59,15.80
2013,08,29,05,00,15.90
2013,08,29,05,01,15.90
2013,08,29,05,02,15.90
2013,08,29,05,03,16.00
2013,08,29,05,04,16.00
2013,08,29,05,05,16.10
2013,08,29,05,06,16.10
2013,08,29,05,07,16.10
2013,08,29,05,08,16.10
2013,08,29,05,09,16.10
2013,08,29,05,10,16.00
2013,08,29,05,11,16.00
2013,08,29,05,12,16.00
2013,08,29,05,13,15.90
2013,08,29,05,14,15.90
2013,08,29,05,15,15.90
2013,08,29,05,16,15.90
2013,08,29,05,17,15.90
2013,08,29,05,18,15.90
2013,08,29,05,19,15.90
2013,08,29,05,20,15.90
2013,08,29,05,21,15.90
2013,08,29,05,22,15.80
2013,08,29,05,23,15.80
2013,08,29,05,24,15.80
2013,08,29,05,25,15.80
2013,08,29,05,26,15.80
2013,08,29,05,27,15.80
2013,08,29,05,28,15.80
2013,08,29,05,29,15.80
2013,08,29,05,30,15.80
2013,08,29,05,31,15.80
2013,08,29,05,32,15.80
2013,08,29,05,33,15.80
2013,08,29,05,34,15.80
2013,08,29,05,35,15.70
2013,08,29,05,36,15.70
2013,08,29,05,37,15.70
2013,08,29,05,38,15.60
2013,08,29,05,39,15.60
2013,08,29,05,40,15.60
2013,08,29,05,41,15.50
2013,08,29,05,42,15.50
2013,08,29,05,43,15.40
2013,08,29,05,44,15.40
2013,08,29,05,45,15.30
2013,08,29,05,46,15.30
2013,08,29,05,47,15.30
2013,08,29,05,48,15.20
2013,08,29,05,49,15.20
2013,08,29,05,50,15.20
2013,08,29,05,51,15.20
2013,08,29,05,52,15.20
2013,08,29,05,53,15.20
2013,08,29,05,54,15.20
2013,08,29,05,55,15.10
2013,08,29,05,56,15.10
2013,08,29,05,57,15.10
2013,08,29,05,58,15.00
2013,08,29,05,59,15.00
2013,08,29,06,00,15.00
2013,08,29,06,01,15.00
2013,08,29,06,02,15.00
2013,08,29,06,03,15.00
2013,08,29,06,04,15.00
2013,08,29,06,05,15.00
2013,08,29,06,06,15.00
2013,08,29,06,07,15.00
2013,08,29,06,08,15.00
2013,08,29,06,09,15.00
2013,08,29,06,10,15.00
2013,08,29,06,11,15.00
2013,08,29,06,12,15.00
2013,08,29,06,13,15.00
2013,08,29,06,14,15.00
2013,08,29,06,15,15.00
2013,08,29,06,16,15.00
2013,08,29,06,17,15.00
2013,08,29,06,18,15.00
2013,08,29,06,19,15.00
2013,08,29,06,20,15.00
2013,08,29,06,21,15.00
2013,08,29,06,22,15.00
2013,08,29,06,23,15.00
2013,08,29,06,24,15.00
2013,08,29,06,25,15.00
2013,08,29,06,26,15.00
2013,08,29,06,27,15.00
2013,08,29,06,28,15.00
2013,08,29,06,29,15.10
2013,08,29,06,30,15.10
2013,08,29,06,31,15.20
2013,08,29,06,32,15.20
2013,08,29,06,33,15.20
2013,08,29,06,34,15.20
2013,08,29,06,35,15.20
2013,08,29,06,36,15.30
2013,08,29,06,37,15.30
2013,08,29,06,38,15.30
2013,08,29,06,39,15.30
2013,08,29,06,40,15.30
2013,08,29,06,41,15.30
2013,08,29,06,42,15.30
2013,08,29,06,43,15.30
2013,08,29,06,44,15.30
2013,08,29,06,45,15.30
2013,08,29,06,46,15.30
2013,08,29,06,47,15.30
2013,08,29,06,48,15.30
2013,08,29,06,49,15.30
2013,08,29,06,50,15.30
2013,08,29,06,51,15.30
2013,08,29,06,52,15.30
2013,08,29,06,53,15.30
2013,08,29,06,54,15.30
2013,08,29,06,55,15.40
2013,08,29,06,56,15.40
2013,08,29,06,57,15.40
2013,08,29,06,58,15.40
2013,08,29,06,59,15.40
2013,08,29,07,00,15.40
2013,08,29,07,01,15.40
2013,08,29,07,02,15.50
2013,08,29,07,03,15.50
2013,08,29,07,04,15.50
2013,08,29,07,05,15.50
2013,08,29,07,06,15.60
2013,08,29,07,07,15.60
2013,08,29,07,08,15.60
2013,08,29,07,09,15.60
2013,08,29,07,10,15.60
2013,08,29,07,11,15.60
2013,08,29,07,12,15.60
2013,08,29,07,13,15.60
2013,08,29,07,14,15.60
2013,08,29,07,15,15.70
2013,08,29,07,16,15.70
2013,08,29,07,17,15.70
2013,08,29,07,18,15.70
2013,08,29,07,19,15.70
2013,08,29,07,20,15.70
2013,08,29,07,21,15.70
2013,08,29,07,22,15.70
2013,08,29,07,23,15.70
2013,08,29,07,24,15.70
2013,08,29,07,25,15.70
2013,08,29,07,26,15.70
2013,08,29,07,27,15.70
2013,08,29,07,28,15.80
2013,08,29,07,29,15.80
2013,08,29,07,30,15.80
2013,08,29,07,31,15.80
2013,08,29,07,32,15.80
2013,08,29,07,33,15.80
2013,08,29,07,34,15.80
2013,08,29,07,35,15.80
2013,08,29,07,36,15.80
2013,08,29,07,37,15.80
2013,08,29,07,38,15.90
2013,08,29,07,39,15.90
2013,08,29,07,40,15.90
2013,08,29,07,41,15.90
2013,08,29,07,42,15.90
2013,08,29,07,43,15.90
2013,08,29,07,44,15.90
2013,08,29,07,45,15.90
2013,08,29,07,46,15.90
2013,08,29,07,47,15.90
2013,08,29,07,48,15.90
2013,08,29,07,49,15.90
2013,08,29,07,50,16.00
2013,08,29,07,51,16.00
2013,08,29,07,52,16.00
2013,08,29,07,53,16.00
2013,08,29,07,54,16.10
2013,08,29,07,55,16.10
2013,08,29,07,56,16.10
2013,08,29,07,57,16.10
2013,08,29,07,58,16.10
2013,08,29,07,59,16.10
2013,08,29,08,00,16.10
2013,08,29,08,01,16.10
2013,08,29,08,02,16.10
2013,08,29,08,03,16.10
2013,08,29,08,04,16.20
2013,08,29,08,05,16.20
2013,08,29,08,06,16.20
2013,08,29,08,07,16.20
2013,08,29,08,08,16.20
2013,08,29,08,09,16.20
2013,08,29,08,10,16.20
2013,08,29,08,11,16.20
2013,08,29,08,12,16.30
2013,08,29,08,13,16.30
2013,08,29,08,14,16.30
2013,08,29,08,15,16.30
2013,08,29,08,16,16.30
2013,08,29,08,17,16.30
2013,08,29,08,18,16.30
2013,08,29,08,19,16.30
2013,08,29,08,20,16.30
2013,08,29,08,21,16.30
2013,08,29,08,22,16.30
2013,08,29,08,23,16.30
2013,08,29,08,24,16.30
2013,08,29,08,25,16.40
2013,08,29,08,26,16.40
2013,08,29,08,27,16.40
2013,08,29,08,28,16.40
2013,08,29,08,29,16.40
2013,08,29,08,30,16.40
2013,08,29,08,31,16.40
2013,08,29,08,32,16.40
2013,08,29,08,33,16.40
2013,08,29,08,34,16.40
2013,08,29,08,35,16.40
2013,08,29,08,36,16.40
2013,08,29,08,37,16.40
2013,08,29,08,38,16.50
2013,08,29,08,39,16.50
2013,08,29,08,40,16.50
2013,08,29,08,41,16.60
2013,08,29,08,42,16.60
2013,08,29,08,43,16.60
2013,08,29,08,44,16.60
2013,08,29,08,45,16.60
2013,08,29,08,46,16.60
2013,08,29,08,47,16.60
2013,08,29,08,48,16.60
2013,08,29,08,49,16.60
2013,08,29,08,50,16.60
2013,08,29,08,51,16.60
2013,08,29,08,52,16.70
2013,08,29,08,53,16.70
2013,08,29,08,54,16.70
2013,08,29,08,55,16.70
2013,08,29,08,56,16.70
2013,08,29,08,57,16.70
2013,08,29,08,58,16.70
2013,08,29,08,59,16.70
2013,08,29,09,00,16.70
2013,08,29,09,01,16.70
2013,08,29,09,02,16.70
2013,08,29,09,03,16.70
2013,08,29,09,04,16.70
2013,08,29,09,05,16.70
2013,08,29,09,06,16.70
2013,08,29,09,07,16.70
2013,08,29,09,08,16.70
2013,08,29,09,09,16.80
2013,08,29,09,10,16.80
2013,08,29,09,11,16.80
2013,08,29,09,12,16.80
2013,08,29,09,13,16.80
2013,08,29,09,14,16.80
2013,08,29,09,15,16.80
2013,08,29,09,16,16.90
2013,08,29,09,17,16.90
2013,08,29,09,18,16.90
2013,08,29,09,19,16.90
2013,08,29,09,20,16.90
2013,08,29,09,21,16.90
2013,08,29,09,22,16.90
2013,08,29,09,23,16.90
2013,08,29,09,24,16.90
2013,08,29,09,25,16.90
2013,08,29,09,26,16.90
2013,08,29,09,27,16.90
2013,08,29,09,28,16.90
2013,08,29,09,29,16.90
2013,08,29,09,30,16.90
2013,08,29,09,31,16.90
2013,08,29,09,32,16.90
2013,08,29,09,33,16.90
2013,08,29,09,34,16.90
2013,08,29,09,35,16.90
2013,08,29,09,36,16.90
2013,08,29,09,37,16.90
2013,08,29,09,38,16.90
2013,08,29,09,39,17.00
2013,08,29,09,40,17.00
2013,08,29,09,41,17.00
2013,08,29,09,42,17.00
2013,08,29,09,43,17.00
2013,08,29,09,44,17.00
2013,08,29,09,45,17.00
2013,08,29,09,46,17.10
2013,08,29,09,47,17.10
2013,08,29,09,48,17.10
2013,08,29,09,49,17.10
2013,08,29,09,50,17.10
2013,08,29,09,51,17.10
2013,08,29,09,52,17.10
2013,08,29,09,53,17.10
2013,08,29,09,54,17.20
2013,08,29,09,55,17.20
2013,08,29,09,56,17.20
2013,08,29,09,57,17.20
2013,08,29,09,58,17.20
2013,08,29,09,59,17.20
2013,08,29,10,00,17.20
2013,08,29,10,01,17.20
2013,08,29,10,02,17.20
2013,08,29,10,03,17.20
2013,08,29,10,04,17.20
2013,08,29,10,05,17.20
2013,08,29,10,06,17.20
2013,08,29,10,07,17.20
2013,08,29,10,08,17.20
2013,08,29,10,09,17.20
2013,08,29,10,10,17.20
2013,08,29,10,11,17.20
2013,08,29,10,12,17.20
2013,08,29,10,13,17.20
2013,08,29,10,14,17.20
2013,08,29,10,15,17.20
2013,08,29,10,16,17.20
2013,08,29,10,17,17.20
2013,08,29,10,18,17.20
2013,08,29,10,19,17.20
2013,08,29,10,20,17.20
2013,08,29,10,21,17.20
2013,08,29,10,22,17.30
2013,08,29,10,23,17.30
2013,08,29,10,24,17.20
2013,08,29,10,25,17.30
2013,08,29,10,26,17.30
2013,08,29,10,27,17.30
2013,08,29,10,28,17.30
2013,08,29,10,29,17.30
2013,08,29,10,30,17.30
2013,08,29,10,31,17.30
2013,08,29,10,32,17.30
2013,08,29,10,33,17.30
2013,08,29,10,34,17.30
2013,08,29,10,35,17.30
2013,08,29,10,36,17.30
2013,08,29,10,37,17.30
2013,08,29,10,38,17.30
2013,08,29,10,39,17.30
2013,08,29,10,40,17.30
2013,08,29,10,41,17.30
2013,08,29,10,42,17.30
2013,08,29,10,43,17.30
2013,08,29,10,44,17.30
2013,08,29,10,45,17.30
2013,08,29,10,46,17.40
2013,08,29,10,47,17.40
2013,08,29,10,48,17.40
2013,08,29,10,49,17.40
2013,08,29,10,50,17.40
2013,08,29,10,51,17.40
2013,08,29,10,52,17.40
2013,08,29,10,53,17.40
2013,08,29,10,54,17.40
2013,08,29,10,55,17.40
2013,08,29,10,56,17.40
2013,08,29,10,57,17.50
2013,08,29,10,58,17.50
2013,08,29,10,59,17.50
2013,08,29,11,00,17.50
2013,08,29,11,01,17.60
2013,08,29,11,02,17.60
2013,08,29,11,03,17.60
2013,08,29,11,04,17.60
2013,08,29,11,05,17.60
2013,08,29,11,06,17.60
2013,08,29,11,07,17.70
2013,08,29,11,08,17.70
2013,08,29,11,09,17.70
2013,08,29,11,10,17.70
2013,08,29,11,11,17.70
2013,08,29,11,12,17.70
2013,08,29,11,13,17.70
2013,08,29,11,14,17.70
2013,08,29,11,15,17.70
2013,08,29,11,16,17.70
2013,08,29,11,17,17.70
2013,08,29,11,18,17.70
2013,08,29,11,19,17.70
2013,08,29,11,20,17.70
2013,08,29,11,21,17.70
2013,08,29,11,22,17.70
2013,08,29,11,23,17.70
2013,08,29,11,24,17.70
2013,08,29,11,25,17.70
2013,08,29,11,26,17.70
2013,08,29,11,27,17.70
2013,08,29,11,28,17.70
2013,08,29,11,29,17.70
2013,08,29,11,30,17.70
2013,08,29,11,31,17.70
2013,08,29,11,32,17.70
2013,08,29,11,33,17.70
2013,08,29,11,34,17.70
2013,08,29,11,35,17.70
2013,08,29,11,36,17.70
2013,08,29,11,37,17.70
2013,08,29,11,38,17.70
2013,08,29,11,39,17.70
2013,08,29,11,40,17.70
2013,08,29,11,41,17.70
2013,08,29,11,42,17.70
2013,08,29,11,43,17.70
2013,08,29,11,44,17.70
2013,08,29,11,45,17.70
2013,08,29,11,46,17.70
2013,08,29,11,47,17.70
2013,08,29,11,48,17.70
2013,08,29,11,49,17.70
2013,08,29,11,50,17.70
2013,08,29,11,51,17.70
2013,08,29,11,52,17.70
2013,08,29,11,53,17.80
2013,08,29,11,54,17.80
2013,08,29,11,55,17.80
2013,08,29,11,56,17.80
2013,08,29,11,57,17.80
2013,08,29,11,58,17.80
2013,08,29,11,59,17.80
2013,08,29,12,00,17.80
2013,08,29,12,01,17.70
2013,08,29,12,02,17.70
2013,08,29,12,03,17.70
2013,08,29,12,04,17.70
2013,08,29,12,05,17.70
2013,08,29,12,06,17.70
2013,08,29,12,07,17.70
2013,08,29,12,08,17.70
2013,08,29,12,09,17.80
2013,08,29,12,10,17.80
2013,08,29,12,11,17.80
2013,08,29,12,12,17.70
2013,08,29,12,13,17.70
2013,08,29,12,14,17.70
2013,08,29,12,15,17.70
2013,08,29,12,16,17.70
2013,08,29,12,17,17.70
2013,08,29,12,18,17.70
2013,08,29,12,19,17.70
2013,08,29,12,20,17.70
2013,08,29,12,21,17.70
2013,08,29,12,22,17.70
2013,08,29,12,23,17.70
2013,08,29,12,24,17.70
2013,08,29,12,25,17.70
2013,08,29,12,26,17.80
2013,08,29,12,27,17.80
2013,08,29,12,28,17.80
2013,08,29,12,29,17.80
2013,08,29,12,30,17.80
2013,08,29,12,31,17.90
2013,08,29,12,32,17.90
2013,08,29,12,33,17.90
2013,08,29,12,34,17.90
2013,08,29,12,35,17.90
2013,08,29,12,36,17.90
2013,08,29,12,37,17.90
2013,08,29,12,38,17.90
2013,08,29,12,39,17.90
2013,08,29,12,40,17.80
2013,08,29,12,41,17.80
2013,08,29,12,42,17.80
2013,08,29,12,43,17.80
2013,08,29,12,44,17.80
2013,08,29,12,45,17.80
2013,08,29,12,46,17.70
2013,08,29,12,47,17.70
2013,08,29,12,48,17.70
2013,08,29,12,49,17.70
2013,08,29,12,50,17.70
2013,08,29,12,51,17.70
2013,08,29,12,52,17.70
2013,08,29,12,53,17.70
2013,08,29,12,54,17.70
2013,08,29,12,55,17.70
2013,08,29,12,56,17.70
2013,08,29,12,57,17.70
2013,08,29,12,58,17.70
2013,08,29,12,59,17.70
2013,08,29,13,00,17.70
2013,08,29,13,01,17.60
2013,08,29,13,02,17.60
2013,08,29,13,03,17.60
2013,08,29,13,04,17.60
2013,08,29,13,05,17.50
2013,08,29,13,06,17.50
2013,08,29,13,07,17.50
2013,08,29,13,08,17.60
2013,08,29,13,09,17.60
2013,08,29,13,10,17.60
2013,08,29,13,11,17.50
2013,08,29,13,12,17.50
2013,08,29,13,13,17.60
2013,08,29,13,14,17.60
2013,08,29,13,15,17.60
2013,08,29,13,16,17.60
2013,08,29,13,17,17.60
2013,08,29,13,18,17.60
2013,08,29,13,19,17.60
2013,08,29,13,20,17.60
2013,08,29,13,21,17.60
2013,08,29,13,22,17.60
2013,08,29,13,23,17.60
2013,08,29,13,24,17.70
2013,08,29,13,25,17.70
2013,08,29,13,26,17.70
2013,08,29,13,27,17.70
2013,08,29,13,28,17.70
2013,08,29,13,29,17.60
2013,08,29,13,30,17.60
2013,08,29,13,31,17.60
2013,08,29,13,32,17.50
2013,08,29,13,33,17.30
2013,08,29,13,34,17.20
2013,08,29,13,35,17.20
2013,08,29,13,36,17.20
2013,08,29,13,37,17.10
2013,08,29,13,38,17.10
2013,08,29,13,39,17.10
2013,08,29,13,40,17.20
2013,08,29,13,41,17.20
2013,08,29,13,42,17.20
2013,08,29,13,43,17.20
2013,08,29,13,44,17.30
2013,08,29,13,45,17.30
2013,08,29,13,46,17.30
2013,08,29,13,47,17.30
2013,08,29,13,48,17.30
2013,08,29,13,49,17.30
2013,08,29,13,50,17.30
2013,08,29,13,51,17.30
2013,08,29,13,52,17.40
2013,08,29,13,53,17.40
2013,08,29,13,54,17.40
2013,08,29,13,55,17.50
2013,08,29,13,56,17.50
2013,08,29,13,57,17.40
2013,08,29,13,58,17.40
2013,08,29,13,59,17.50
2013,08,29,14,00,17.50
2013,08,29,14,01,17.60
2013,08,29,14,02,17.70
2013,08,29,14,03,17.80
2013,08,29,14,04,17.90
2013,08,29,14,05,18.00
2013,08,29,14,06,18.00
2013,08,29,14,07,18.10
2013,08,29,14,08,18.20
2013,08,29,14,09,18.10
2013,08,29,14,10,18.10
2013,08,29,14,11,18.20
2013,08,29,14,12,18.20
2013,08,29,14,13,18.20
2013,08,29,14,14,18.20
2013,08,29,14,15,18.20
2013,08,29,14,16,18.20
2013,08,29,14,17,18.30
2013,08,29,14,18,18.50
2013,08,29,14,19,18.50
2013,08,29,14,20,18.60
2013,08,29,14,21,18.60
2013,08,29,14,22,18.60
2013,08,29,14,23,18.70
2013,08,29,14,24,18.70
2013,08,29,14,25,18.70
2013,08,29,14,26,18.80
2013,08,29,14,27,18.80
2013,08,29,14,28,18.90
2013,08,29,14,29,18.90
2013,08,29,14,30,18.90
2013,08,29,14,31,19.00
2013,08,29,14,32,19.00
2013,08,29,14,33,19.00
2013,08,29,14,34,19.10
2013,08,29,14,35,19.00
2013,08,29,14,36,19.00
2013,08,29,14,37,19.00
2013,08,29,14,38,19.10
2013,08,29,14,39,19.10
2013,08,29,14,40,19.20
2013,08,29,14,41,19.30
2013,08,29,14,42,19.40
2013,08,29,14,43,19.50
2013,08,29,14,44,19.60
2013,08,29,14,45,19.60
2013,08,29,14,46,19.60
2013,08,29,14,47,19.60
2013,08,29,14,48,19.70
2013,08,29,14,49,19.70
2013,08,29,14,50,19.70
2013,08,29,14,51,19.70
2013,08,29,14,52,19.70
2013,08,29,14,53,19.70
2013,08,29,14,54,19.70
2013,08,29,14,55,19.70
2013,08,29,14,56,19.70
2013,08,29,14,57,19.80
2013,08,29,14,58,19.80
2013,08,29,14,59,19.80
2013,08,29,15,00,19.70
2013,08,29,15,01,19.70
2013,08,29,15,02,19.70
2013,08,29,15,03,19.70
2013,08,29,15,04,19.60
2013,08,29,15,05,19.50
2013,08,29,15,06,19.50
2013,08,29,15,07,19.40
2013,08,29,15,08,19.40
2013,08,29,15,09,19.30
2013,08,29,15,10,19.10
2013,08,29,15,11,19.00
2013,08,29,15,12,18.80
2013,08,29,15,13,18.70
2013,08,29,15,14,18.70
2013,08,29,15,15,18.50
2013,08,29,15,16,18.40
2013,08,29,15,17,18.20
2013,08,29,15,18,18.20
2013,08,29,15,19,18.10
2013,08,29,15,20,17.90
2013,08,29,15,21,17.80
2013,08,29,15,22,17.80
2013,08,29,15,23,17.70
2013,08,29,15,24,17.70
2013,08,29,15,25,17.60
2013,08,29,15,26,17.60
2013,08,29,15,27,17.50
2013,08,29,15,28,17.50
2013,08,29,15,29,17.50
2013,08,29,15,30,17.50
2013,08,29,15,31,17.50
2013,08,29,15,32,17.50
2013,08,29,15,33,17.60
2013,08,29,15,34,17.60
2013,08,29,15,35,17.70
2013,08,29,15,36,17.60
2013,08,29,15,37,17.60
2013,08,29,15,38,17.60
2013,08,29,15,39,17.60
2013,08,29,15,40,17.60
2013,08,29,15,41,17.60
2013,08,29,15,42,17.70
2013,08,29,15,43,17.70
2013,08,29,15,44,17.70
2013,08,29,15,45,17.70
2013,08,29,15,46,17.80
2013,08,29,15,47,17.80
2013,08,29,15,48,17.90
2013,08,29,15,49,17.90
2013,08,29,15,50,17.90
2013,08,29,15,51,18.00
2013,08,29,15,52,18.00
2013,08,29,15,53,18.10
2013,08,29,15,54,18.10
2013,08,29,15,55,18.10
2013,08,29,15,56,18.20
2013,08,29,15,57,18.20
2013,08,29,15,58,18.30
2013,08,29,15,59,18.30
2013,08,29,16,00,18.30
2013,08,29,16,01,18.30
2013,08,29,16,02,18.30
2013,08,29,16,03,18.30
2013,08,29,16,04,18.30
2013,08,29,16,05,18.30
2013,08,29,16,06,18.30
2013,08,29,16,07,18.40
2013,08,29,16,08,18.40
2013,08,29,16,09,18.40
2013,08,29,16,10,18.30
2013,08,29,16,11,18.30
2013,08,29,16,12,18.30
2013,08,29,16,13,18.30
2013,08,29,16,14,18.30
2013,08,29,16,15,18.20
2013,08,29,16,16,18.20
2013,08,29,16,17,18.30
2013,08,29,16,18,18.30
2013,08,29,16,19,18.20
2013,08,29,16,20,18.20
2013,08,29,16,21,18.20
2013,08,29,16,22,18.20
2013,08,29,16,23,18.20
2013,08,29,16,24,18.20
2013,08,29,16,25,18.20
2013,08,29,16,26,18.10
2013,08,29,16,27,18.20
2013,08,29,16,28,18.20
2013,08,29,16,29,18.30
2013,08,29,16,30,18.30
2013,08,29,16,31,18.20
2013,08,29,16,32,18.20
2013,08,29,16,33,18.20
2013,08,29,16,34,18.10
2013,08,29,16,35,18.10
2013,08,29,16,36,18.20
2013,08,29,16,37,18.20
2013,08,29,16,38,18.20
2013,08,29,16,39,18.20
2013,08,29,16,40,18.20
2013,08,29,16,41,18.20
2013,08,29,16,42,18.20
2013,08,29,16,43,18.20
2013,08,29,16,44,18.20
2013,08,29,16,45,18.20
2013,08,29,16,46,18.30
2013,08,29,16,47,18.30
2013,08,29,16,48,18.30
2013,08,29,16,49,18.30
2013,08,29,16,50,18.30
2013,08,29,16,51,18.30
2013,08,29,16,52,18.30
2013,08,29,16,53,18.30
2013,08,29,16,54,18.30
2013,08,29,16,55,18.30
2013,08,29,16,56,18.30
2013,08,29,16,57,18.30
2013,08,29,16,58,18.30
2013,08,29,16,59,18.30
2013,08,29,17,00,18.40
2013,08,29,17,01,18.50
2013,08,29,17,02,18.50
2013,08,29,17,03,18.60
2013,08,29,17,04,18.60
2013,08,29,17,05,18.60
2013,08,29,17,06,18.60
2013,08,29,17,07,18.60
2013,08,29,17,08,18.60
2013,08,29,17,09,18.60
2013,08,29,17,10,18.60
2013,08,29,17,11,18.60
2013,08,29,17,12,18.60
2013,08,29,17,13,18.70
2013,08,29,17,14,18.70
2013,08,29,17,15,18.80
2013,08,29,17,16,18.80
2013,08,29,17,17,18.80
2013,08,29,17,18,18.90
2013,08,29,17,19,18.90